Spirit of St Louis, MO

5:52 PM CDT on March 28, 2017 (GMT -0500)
Spirit Of Saint Louis

Weather History for KSUS - April, 2013

Change the Weather History Date:

Thursday, April 11, 2013

  Actual Average Record
Temperature  
Mean Temperature 50 °F -  
Max Temperature 60 °F 64 °F 82 °F (2002)
Min Temperature 41 °F 42 °F 30 °F (2003)
Degree Days  
Heating Degree Days 14    
Moisture  
Dew Point 41 °F    
Average Humidity 79    
Maximum Humidity 96    
Minimum Humidity 60    
Precipitation  
Precipitation 0.03 in - - ()
Sea Level Pressure  
Sea Level Pressure 29.71 in    
Wind  
Wind Speed 11 mph (WSW)    
Max Wind Speed 24 mph    
Max Gust Speed 31 mph    
Visibility 9 miles    
Events Rain    
Averages and records for this station are not official NWS values.
T = Trace of Precipitation, MM = Missing Value Source: NWS Daily Summary

Daily Weather History Graph

Daily Weather History Graph

Search for Another Location

Airport or City:

Trip Planner

Search our weather history database for the weather conditions in past years. The results will help you decide how hot, cold, wet, or windy it might be!

Date:

Astronomy

Apr. 11, 2013 Rise Set
Actual Time 6:31 AM CDT 7:35 PM CDT
Civil Twilight 6:04 AM CDT 8:03 PM CDT
Nautical Twilight 5:32 AM CDT 8:35 PM CDT
Astronomical Twilight 4:58 AM CDT 9:09 PM CDT
Moon 7:04 AM CDT (4/11) 9:09 PM CDT (4/11)
Length of Visible Light 13h 58m
Length of Day
13h 03m
New Moon, 2% of the Moon is Illuminated
Apr 11
New Moon
Apr 18
First Quarter
Apr 25
Full
May 2
Last Quarter
May 9
New

Hourly Weather History & Observations

Time (CDT) Temp. Windchill Dew Point Humidity Pressure Visibility Wind Dir Wind Speed Gust Speed Precip Events Conditions
12:50 AM 60.8 °F - 57.2 °F 88% 29.66 in 2.5 mi SW 3.5 mph - 0.01 in Rain Light Rain
12:54 AM 60.1 °F - 59.0 °F 96% 29.65 in 3.0 mi Calm Calm - 0.01 in Rain Light Rain
1:10 AM 57.2 °F - 55.4 °F 94% 29.67 in 3.0 mi West 17.3 mph 26.5 mph 0.02 in Rain Light Rain
1:18 AM 55.4 °F - 53.6 °F 94% 29.68 in 2.5 mi WSW 24.2 mph 31.1 mph 0.02 in Rain Light Rain
1:20 AM 55.4 °F - 53.6 °F 94% 29.69 in 3.0 mi WSW 21.9 mph 31.1 mph 0.02 in Rain Light Rain
1:31 AM 53.6 °F - 51.8 °F 94% 29.69 in 7.0 mi WSW 18.4 mph 27.6 mph 0.02 in   Overcast
1:54 AM 52.0 °F - 48.9 °F 89% 29.67 in 10.0 mi WSW 17.3 mph 24.2 mph 0.02 in   Overcast
2:05 AM 51.8 °F - 48.2 °F 88% 29.67 in 9.0 mi West 15.0 mph 23.0 mph 0.00 in Rain Light Rain
2:54 AM 50.0 °F - 46.9 °F 89% 29.65 in 10.0 mi WSW 12.7 mph - 0.00 in   Overcast
3:54 AM 48.9 °F - 46.0 °F 90% 29.68 in 10.0 mi West 13.8 mph 21.9 mph 0.00 in Rain Light Rain
4:54 AM 48.0 °F - 45.0 °F 89% 29.67 in 10.0 mi West 12.7 mph - 0.00 in   Overcast
5:33 AM 48.2 °F - 44.6 °F 87% 29.67 in 10.0 mi West 11.5 mph - N/A   Overcast
5:54 AM 48.0 °F - 44.1 °F 86% 29.68 in 10.0 mi West 11.5 mph - N/A   Overcast
6:25 AM 46.4 °F 41.9 °F 42.8 °F 87% 29.68 in 10.0 mi West 9.2 mph - N/A   Overcast
6:33 AM 46.4 °F 41.5 °F 42.8 °F 87% 29.69 in 10.0 mi West 10.4 mph - N/A   Overcast
6:54 AM 46.9 °F - 42.1 °F 83% 29.72 in 10.0 mi WSW 13.8 mph - N/A   Overcast
7:41 AM 46.4 °F 42.4 °F 41.0 °F 81% 29.70 in 10.0 mi West 8.1 mph - N/A   Mostly Cloudy
7:54 AM 46.0 °F 41.0 °F 41.0 °F 83% 29.71 in 10.0 mi West 10.4 mph - N/A   Overcast
8:54 AM 46.0 °F 40.6 °F 41.0 °F 83% 29.70 in 10.0 mi West 11.5 mph 19.6 mph N/A   Overcast
9:18 AM 46.4 °F 40.7 °F 39.2 °F 76% 29.71 in 10.0 mi West 12.7 mph - N/A   Overcast
9:45 AM 46.4 °F 41.1 °F 41.0 °F 81% 29.71 in 10.0 mi WSW 11.5 mph - N/A   Overcast
9:54 AM 46.0 °F 41.0 °F 39.9 °F 79% 29.71 in 10.0 mi WSW 10.4 mph - N/A   Overcast
10:54 AM 45.0 °F 39.7 °F 39.0 °F 80% 29.73 in 10.0 mi WSW 10.4 mph - N/A   Overcast
11:54 AM 44.6 °F 37.4 °F 37.4 °F 76% 29.75 in 10.0 mi WSW 16.1 mph - N/A   Overcast
12:54 PM 45.0 °F 39.7 °F 37.0 °F 74% 29.73 in 10.0 mi SW 10.4 mph - N/A   Overcast
1:54 PM 46.0 °F 40.6 °F 37.0 °F 71% 29.71 in 10.0 mi West 11.5 mph - N/A   Overcast
2:54 PM 45.0 °F 39.7 °F 37.0 °F 74% 29.71 in 10.0 mi West 10.4 mph - N/A   Overcast
3:54 PM 46.0 °F 39.6 °F 35.1 °F 66% 29.70 in 10.0 mi West 15.0 mph - N/A   Mostly Cloudy
4:54 PM 44.1 °F 37.4 °F 33.1 °F 65% 29.71 in 10.0 mi West 13.8 mph 20.7 mph N/A   Overcast
5:54 PM 44.1 °F 38.6 °F 32.0 °F 63% 29.73 in 10.0 mi WNW 10.4 mph - N/A   Overcast
6:51 PM 42.8 °F 36.6 °F 32.0 °F 66% 29.73 in 10.0 mi West 11.5 mph - N/A   Overcast
6:54 PM 42.1 °F 36.6 °F 32.0 °F 67% 29.74 in 10.0 mi West 9.2 mph - N/A   Overcast
7:54 PM 42.1 °F 34.2 °F 30.0 °F 62% 29.75 in 10.0 mi West 16.1 mph 21.9 mph N/A   Overcast
8:54 PM 42.1 °F 36.1 °F 28.9 °F 60% 29.76 in 10.0 mi West 10.4 mph 20.7 mph N/A   Overcast
9:54 PM 41.0 °F 38.0 °F 30.0 °F 65% 29.77 in 10.0 mi WSW 4.6 mph - N/A   Overcast
10:54 PM 42.1 °F 38.4 °F 28.9 °F 60% 29.77 in 10.0 mi SW 5.8 mph - N/A   Overcast
11:54 PM 41.0 °F 37.1 °F 30.0 °F 65% 29.76 in 10.0 mi SW 5.8 mph - N/A   Overcast